Location: Newark
(34.1333°N, 7.9667°W)
Time: 09:59:31
(UTC+00:00)

COSMOS 2251 DEB - Pass Details

Date: 23 February 2024
Orbit: 726 x 941 km, 73.7° (Epoch: 12 April)

Event Time Altitude Azimuth Distance (km) Brightness Sun altitude
Rises 04:32:19 0° 146° (SE) 3,591 ? -33.0°
Maximum altitude 04:39:04 13° 94° (E) 2,403 ? -31.6°
Drops below altitude 10° 04:41:47 10° 67° (ENE) 2,628 ? -31.1°
Sets 04:45:41 0° 42° (NE) 3,543 ? -30.3°
